When you browse on this site, cookies collect data to enhance your experience and personalize the content and advertising you see.
Visit our Privacy Policy to learn more. By continuing to use the site, you agree to this use of cookies and data.
  • In United Kingdom
  • List of Countries
  • For 7 days
  • Water Temperature
  • Weather Map
  • Weather Widgets
  • user-avatar
    Login

    Hourly Weather Ipswich

    Today, 31 May, Sunday

    Time Temperature Precipitation Wind Pressure Humidity
    00:00 +9°C° 0 mm 5 mps 766 mmHg 77%
    01:00 +10°C° 0 mm 4 mps 766 mmHg 83%
    02:00 +10°C° 0 mm 4 mps 766 mmHg 89%
    03:00 +10°C° 0 mm 4 mps 766 mmHg 95%
    04:00 +11°C° 0 mm 4 mps 766 mmHg 90%
    05:00 +13°C° 0 mm 4 mps 766 mmHg 86%
    06:00 +14°C° 0 mm 4 mps 766 mmHg 83%
    07:00 +17°C° 0 mm 4 mps 766 mmHg 76%
    08:00 +17°C° 0 mm 5 mps 766 mmHg 70%
    09:00 +19°C° 0 mm 5 mps 766 mmHg 63%
    10:00 +19°C° 0 mm 6 mps 766 mmHg 60%
    11:00 +20°C° 0 mm 6 mps 767 mmHg 57%
    12:00 +20°C° 0 mm 7 mps 767 mmHg 54%
    13:00 +20°C° 0 mm 7 mps 767 mmHg 54%
    14:00 +18°C° 0 mm 7 mps 767 mmHg 55%
    15:00 +18°C° 0 mm 7 mps 767 mmHg 55%
    16:00 +17°C° 0 mm 7 mps 767 mmHg 60%
    17:00 +16°C° 0 mm 7 mps 767 mmHg 64%
    18:00 +15°C° 0 mm 6 mps 766 mmHg 69%
    19:00 +14°C° 0 mm 6 mps 767 mmHg 75%
    20:00 +11°C° 0 mm 6 mps 767 mmHg 81%
    21:00 +10°C° 0 mm 5 mps 767 mmHg 87%
    22:00 +9°C° 0 mm 5 mps 767 mmHg 90%
    23:00 +10°C° 0 mm 4 mps 767 mmHg 92%

    Tomorrow, 1 June, Monday

    Time Temperature Precipitation Wind Pressure Humidity
    00:00 +10°C° 0 mm 4 mps 767 mmHg 95%
    01:00 +10°C° 0 mm 4 mps 767 mmHg 95%
    02:00 +10°C° 0 mm 4 mps 766 mmHg 95%
    03:00 +10°C° 0 mm 4 mps 766 mmHg 96%
    04:00 +11°C° 0 mm 4 mps 766 mmHg 93%
    05:00 +12°C° 0 mm 4 mps 767 mmHg 90%
    06:00 +14°C° 0 mm 4 mps 767 mmHg 87%
    07:00 +15°C° 0 mm 5 mps 767 mmHg 82%
    08:00 +16°C° 0 mm 5 mps 767 mmHg 77%
    09:00 +19°C° 0 mm 5 mps 767 mmHg 72%
    10:00 +19°C° 0 mm 5 mps 767 mmHg 70%
    11:00 +20°C° 0 mm 6 mps 767 mmHg 68%
    12:00 +20°C° 0 mm 6 mps 767 mmHg 66%
    13:00 +20°C° 0 mm 6 mps 766 mmHg 66%
    14:00 +20°C° 0 mm 6 mps 766 mmHg 66%
    15:00 +20°C° 0 mm 5 mps 766 mmHg 66%
    16:00 +19°C° 0 mm 5 mps 766 mmHg 68%
    17:00 +16°C° 0 mm 5 mps 766 mmHg 70%
    18:00 +15°C° 0 mm 5 mps 766 mmHg 72%
    19:00 +14°C° 0 mm 5 mps 766 mmHg 80%
    20:00 +12°C° 0 mm 4 mps 766 mmHg 87%
    21:00 +10°C° 0 mm 4 mps 766 mmHg 95%
    22:00 +10°C° 0 mm 4 mps 766 mmHg 96%
    23:00 +10°C° 0 mm 4 mps 766 mmHg 96%

    Day after tomorrow, 2 June, Tuesday

    Time Temperature Precipitation Wind Pressure Humidity
    00:00 +8°C° 0 mm 4 mps 766 mmHg 97%
    01:00 +10°C° 0 mm 4 mps 765 mmHg 97%
    02:00 +10°C° 0 mm 4 mps 765 mmHg 97%
    03:00 +10°C° 0 mm 3 mps 765 mmHg 97%
    04:00 +11°C° 0 mm 3 mps 765 mmHg 96%
    05:00 +12°C° 0 mm 3 mps 765 mmHg 94%
    06:00 +13°C° 0 mm 3 mps 764 mmHg 92%
    07:00 +16°C° 0 mm 3 mps 764 mmHg 85%
    08:00 +18°C° 0 mm 3 mps 764 mmHg 78%
    09:00 +20°C° 0 mm 3 mps 764 mmHg 71%
    10:00 +21°C° 0 mm 3 mps 764 mmHg 67%
    11:00 +22°C° 0 mm 3 mps 763 mmHg 64%
    12:00 +22°C° 0 mm 3 mps 763 mmHg 61%
    13:00 +22°C° 0 mm 3 mps 763 mmHg 62%
    14:00 +22°C° 0 mm 3 mps 762 mmHg 63%
    15:00 +22°C° 0 mm 4 mps 762 mmHg 64%
    16:00 +21°C° 0 mm 4 mps 761 mmHg 70%
    17:00 +20°C° 0 mm 4 mps 761 mmHg 75%
    18:00 +19°C° 0 mm 4 mps 760 mmHg 80%
    19:00 +17°C° 0 mm 3 mps 760 mmHg 85%
    20:00 +16°C° 0 mm 3 mps 760 mmHg 89%
    21:00 +13°C° 0 mm 3 mps 760 mmHg 94%
    22:00 +12°C° 0 mm 3 mps 759 mmHg 94%
    23:00 +12°C° 0 mm 3 mps 759 mmHg 95%

    3 June, Wednesday

    Time Temperature Precipitation Wind Pressure Humidity
    00:00 +12°C° 0 mm 2 mps 759 mmHg 95%
    01:00 +11°C° 0 mm 3 mps 758 mmHg 96%
    02:00 +10°C° 0 mm 3 mps 758 mmHg 96%
    03:00 +10°C° 0 mm 3 mps 757 mmHg 97%
    04:00 +11°C° 0 mm 3 mps 757 mmHg 95%
    05:00 +11°C° 0 mm 3 mps 757 mmHg 94%
    06:00 +12°C° 0 mm 3 mps 756 mmHg 93%
    07:00 +14°C° 0 mm 3 mps 756 mmHg 87%
    08:00 +15°C° 0 mm 4 mps 756 mmHg 82%
    09:00 +17°C° 0 mm 4 mps 756 mmHg 76%
    10:00 +18°C° 0 mm 4 mps 756 mmHg 73%
    11:00 +19°C° 0 mm 5 mps 756 mmHg 70%
    12:00 +19°C° 0 mm 5 mps 756 mmHg 68%
    13:00 +19°C° 0.1 mm 6 mps 755 mmHg 70%
    14:00 +17°C° 0.1 mm 7 mps 755 mmHg 71%
    15:00 +17°C° 0.1 mm 7 mps 755 mmHg 73%
    16:00 +16°C° 0 mm 7 mps 755 mmHg 74%
    17:00 +15°C° 0 mm 7 mps 755 mmHg 75%
    18:00 +14°C° 0 mm 7 mps 755 mmHg 75%
    19:00 +12°C° 0 mm 7 mps 755 mmHg 79%
    20:00 +11°C° 0 mm 7 mps 755 mmHg 83%
    21:00 +11°C° 0 mm 6 mps 755 mmHg 86%
    22:00 +11°C° 0 mm 6 mps 755 mmHg 86%
    23:00 +11°C° 0 mm 7 mps 755 mmHg 85%

    4 June, Thursday

    Time Temperature Precipitation Wind Pressure Humidity
    00:00 +11°C° 0 mm 7 mps 755 mmHg 84%
    01:00 +11°C° 0 mm 7 mps 755 mmHg 82%
    02:00 +11°C° 0 mm 7 mps 755 mmHg 80%
    03:00 +11°C° 0 mm 7 mps 755 mmHg 77%
    04:00 +11°C° 0 mm 6 mps 755 mmHg 77%
    05:00 +11°C° 0 mm 6 mps 755 mmHg 76%
    06:00 +11°C° 0 mm 6 mps 755 mmHg 75%
    07:00 +12°C° 0 mm 5 mps 755 mmHg 73%
    08:00 +13°C° 0 mm 5 mps 755 mmHg 71%
    09:00 +14°C° 0 mm 5 mps 755 mmHg 70%
    10:00 +14°C° 0 mm 5 mps 755 mmHg 67%
    11:00 +14°C° 0 mm 4 mps 755 mmHg 64%
    12:00 +14°C° 0 mm 4 mps 756 mmHg 62%
    13:00 +15°C° 0 mm 4 mps 755 mmHg 60%
    14:00 +15°C° 0 mm 4 mps 755 mmHg 59%
    15:00 +15°C° 0 mm 4 mps 755 mmHg 57%
    16:00 +16°C° 0 mm 3 mps 755 mmHg 60%
    17:00 +16°C° 0 mm 2 mps 755 mmHg 62%
    18:00 +16°C° 0 mm 1 mps 755 mmHg 65%
    19:00 +14°C° 0 mm 2 mps 755 mmHg 70%
    20:00 +12°C° 0 mm 3 mps 755 mmHg 76%
    21:00 +10°C° 0 mm 3 mps 755 mmHg 82%
    22:00 +10°C° 0 mm 4 mps 755 mmHg 83%
    23:00 +10°C° 0 mm 4 mps 755 mmHg 83%

    5 June, Friday

    Time Temperature Precipitation Wind Pressure Humidity
    00:00 +9°C° 0 mm 5 mps 755 mmHg 84%
    01:00 +10°C° 0 mm 4 mps 755 mmHg 83%
    02:00 +10°C° 0 mm 4 mps 754 mmHg 83%
    03:00 +10°C° 0 mm 4 mps 754 mmHg 82%
    04:00 +11°C° 0 mm 4 mps 754 mmHg 81%
    05:00 +11°C° 0 mm 4 mps 754 mmHg 80%
    06:00 +12°C° 0 mm 4 mps 754 mmHg 79%
    07:00 +13°C° 0 mm 4 mps 753 mmHg 75%
    08:00 +14°C° 0 mm 4 mps 753 mmHg 71%
    09:00 +16°C° 0 mm 5 mps 753 mmHg 66%
    10:00 +17°C° 0 mm 5 mps 753 mmHg 64%
    11:00 +19°C° 0 mm 5 mps 753 mmHg 62%
    12:00 +19°C° 0 mm 5 mps 752 mmHg 60%
    13:00 +20°C° 0 mm 5 mps 752 mmHg 62%
    14:00 +20°C° 0 mm 4 mps 752 mmHg 64%
    15:00 +20°C° 0 mm 4 mps 752 mmHg 67%
    16:00 +19°C° 0.1 mm 4 mps 752 mmHg 72%
    17:00 +18°C° 0.1 mm 3 mps 752 mmHg 78%
    18:00 +17°C° 0.1 mm 3 mps 752 mmHg 84%
    19:00 +16°C° 0.1 mm 3 mps 752 mmHg 84%
    20:00 +14°C° 0.1 mm 3 mps 752 mmHg 84%
    21:00 +13°C° 0.1 mm 3 mps 753 mmHg 84%
    22:00 +11°C° 0 mm 4 mps 753 mmHg 83%
    23:00 +10°C° 0 mm 4 mps 753 mmHg 82%
    Show more